Algona, IA

11:52 PM CDT on September 22, 2017 (GMT -0500)
Algona Municipal

Weather History for KAXA - March, 2014

Change the Weather History Date:

Sunday, March 9, 2014

  Actual Average Record
Temperature  
Mean Temperature 28 °F -  
Max Temperature 42 °F 31 °F 53 °F (2015)
Min Temperature 15 °F 17 °F 1 °F (2003)
Degree Days  
Heating Degree Days 36    
Moisture  
Dew Point 28 °F    
Average Humidity 85    
Maximum Humidity 93    
Minimum Humidity 75    
Precipitation  
Precipitation 0.00 in - - ()
Sea Level Pressure  
Sea Level Pressure 29.90 in    
Wind  
Wind Speed 15 mph (SSW)    
Max Wind Speed 22 mph    
Max Gust Speed 28 mph    
Visibility 10 miles    
Events      
Averages and records for this station are not official NWS values.
T = Trace of Precipitation, MM = Missing Value Source: NWS Daily Summary

Daily Weather History Graph

Daily Weather History Graph

Search for Another Location

Airport or City:

Trip Planner

Search our weather history database for the weather conditions in past years. The results will help you decide how hot, cold, wet, or windy it might be!

Date:

Astronomy

Mar. 09, 2014 Rise Set
Actual Time 7:39 AM CDT 7:16 PM CDT
Civil Twilight 7:11 AM CDT 7:44 PM CDT
Nautical Twilight 6:38 AM CDT 8:17 PM CDT
Astronomical Twilight 6:05 AM CDT 8:50 PM CDT
Moon 1:03 PM CDT (3/9) 3:12 AM CDT (3/9)
Length of Visible Light 12h 33m
Length of Day
11h 36m
First Quarter, 61% of the Moon is Illuminated
Mar 9
First Quarter
Mar 16
Full
Mar 23
Last Quarter
Mar 30
New
Apr 7
First Quarter

Hourly Weather History & Observations

Time (CDT) Temp. Windchill Dew Point Humidity Pressure Visibility Wind Dir Wind Speed Gust Speed Precip Events Conditions
12:15 AM 15.8 °F 2.7 °F 14.0 °F 93% 30.21 in 10.0 mi South 11.5 mph - N/A   Clear
12:35 AM 17.6 °F 4.3 °F 14.0 °F 86% 30.20 in 10.0 mi SSW 12.7 mph - N/A   Clear
12:55 AM 17.6 °F 3.7 °F 14.0 °F 86% 30.20 in 10.0 mi South 13.8 mph - N/A   Clear
1:15 AM 15.8 °F 2.1 °F 14.0 °F 93% 30.19 in 10.0 mi South 12.7 mph - N/A   Clear
1:35 AM 15.8 °F 1.4 °F 14.0 °F 93% 30.18 in 10.0 mi South 13.8 mph - N/A   Clear
1:55 AM 15.8 °F 1.4 °F 14.0 °F 93% 30.17 in 10.0 mi South 13.8 mph - N/A   Clear
3:15 AM 15.8 °F 0.3 °F 14.0 °F 93% 30.16 in 10.0 mi South 16.1 mph - N/A   Clear
3:35 AM 15.8 °F 0.9 °F 14.0 °F 93% 30.15 in 10.0 mi South 15.0 mph - N/A   Clear
3:55 AM 15.8 °F 1.4 °F 14.0 °F 93% 30.14 in 10.0 mi South 13.8 mph - N/A   Clear
4:15 AM 17.6 °F 2.7 °F 14.0 °F 86% 30.12 in 10.0 mi South 16.1 mph - N/A   Clear
4:35 AM 17.6 °F 2.2 °F 14.0 °F 86% 30.11 in 10.0 mi South 17.3 mph - N/A   Clear
4:55 AM 17.6 °F 3.2 °F 14.0 °F 86% 30.11 in 10.0 mi South 15.0 mph - N/A   Clear
5:15 AM 17.6 °F 2.7 °F 14.0 °F 86% 30.10 in 10.0 mi South 16.1 mph - N/A   Clear
5:35 AM 17.6 °F 2.7 °F 14.0 °F 86% 30.09 in 10.0 mi South 16.1 mph - N/A   Clear
5:55 AM 17.6 °F 2.2 °F 15.8 °F 93% 30.06 in 10.0 mi South 17.3 mph - N/A   Clear
6:15 AM 19.4 °F 4.5 °F 15.8 °F 86% 30.06 in 10.0 mi South 17.3 mph - N/A   Clear
6:35 AM 19.4 °F 3.2 °F 15.8 °F 86% 30.05 in 10.0 mi South 20.7 mph - N/A   Clear
6:55 AM 19.4 °F 3.2 °F 15.8 °F 86% 30.04 in 10.0 mi South 20.7 mph - N/A   Clear
7:15 AM 19.4 °F 3.6 °F 15.8 °F 86% 30.03 in 10.0 mi South 19.6 mph - N/A   Clear
7:35 AM 19.4 °F 3.6 °F 15.8 °F 86% 30.02 in 10.0 mi South 19.6 mph - N/A   Clear
7:55 AM 21.2 °F 5.6 °F 15.8 °F 80% 30.01 in 10.0 mi South 20.7 mph - N/A   Clear
8:15 AM 21.2 °F 6.0 °F 17.6 °F 86% 30.00 in 10.0 mi South 19.6 mph - N/A   Clear
8:35 AM 23.0 °F 8.3 °F 17.6 °F 80% 29.99 in 10.0 mi South 19.6 mph - N/A   Clear
8:55 AM 24.8 °F 10.3 °F 19.4 °F 80% 29.98 in 10.0 mi South 20.7 mph - N/A   Clear
9:15 AM 26.6 °F 12.4 °F 21.2 °F 80% 29.97 in 10.0 mi South 21.9 mph - N/A   Clear
9:35 AM 28.4 °F 15.4 °F 23.0 °F 80% 29.96 in 10.0 mi South 19.6 mph - N/A   Clear
9:55 AM 30.2 °F 17.8 °F 24.8 °F 80% 29.94 in 10.0 mi South 19.6 mph - N/A   Clear
10:15 AM 30.2 °F 18.1 °F 24.8 °F 80% 29.94 in 10.0 mi SSW 18.4 mph 25.3 mph N/A   Clear
10:35 AM 32.0 °F 20.1 °F 26.6 °F 80% 29.93 in 10.0 mi South 19.6 mph - N/A   Clear
10:55 AM 32.0 °F 19.8 °F 28.4 °F 87% 29.91 in 10.0 mi South 20.7 mph - N/A   Clear
11:15 AM 33.8 °F 22.2 °F 28.4 °F 81% 29.90 in 10.0 mi South 20.7 mph - N/A   Clear
11:35 AM 35.6 °F 24.8 °F 30.2 °F 81% 29.88 in 10.0 mi South 19.6 mph - N/A   Clear
11:55 AM 35.6 °F 24.5 °F 30.2 °F 81% 29.87 in 10.0 mi SSW 20.7 mph - N/A   Clear
12:15 PM 37.4 °F 26.6 °F 30.2 °F 75% 29.86 in 10.0 mi SSW 21.9 mph - N/A   Clear
12:35 PM 37.4 °F 26.6 °F 30.2 °F 75% 29.85 in 10.0 mi SSW 21.9 mph 27.6 mph N/A   Clear
12:55 PM 37.4 °F 27.8 °F 30.2 °F 75% 29.86 in 10.0 mi SSW 17.3 mph - N/A   Clear
1:15 PM 37.4 °F 28.2 °F 32.0 °F 81% 29.85 in 10.0 mi SSW 16.1 mph - N/A   Clear
1:35 PM 37.4 °F 27.8 °F 32.0 °F 81% 29.82 in 10.0 mi SSW 17.3 mph - N/A   Clear
1:55 PM 39.2 °F 30.2 °F 32.0 °F 75% 29.82 in 10.0 mi SSW 17.3 mph - N/A   Clear
2:15 PM 39.2 °F 31.6 °F 33.8 °F 81% 29.81 in 10.0 mi SSW 12.7 mph - N/A   Clear
2:35 PM 41.0 °F 33.5 °F 33.8 °F 76% 29.80 in 10.0 mi SSW 13.8 mph - N/A   Clear
2:55 PM 41.0 °F 33.1 °F 35.6 °F 81% 29.79 in 10.0 mi SSW 15.0 mph - N/A   Clear
3:15 PM 42.8 °F 34.0 °F 35.6 °F 76% 29.76 in 10.0 mi SSW 20.7 mph - N/A   Clear
3:35 PM 42.8 °F 34.8 °F 35.6 °F 76% 29.76 in 10.0 mi SSW 17.3 mph - N/A   Clear
3:55 PM 42.8 °F 35.4 °F 37.4 °F 81% 29.76 in 10.0 mi SSW 15.0 mph - N/A   Clear
4:15 PM 42.8 °F 35.4 °F 37.4 °F 81% 29.76 in 10.0 mi South 15.0 mph - N/A   Clear
4:35 PM 42.8 °F 36.6 °F 37.4 °F 81% 29.76 in 10.0 mi South 11.5 mph - N/A   Clear
4:55 PM 42.8 °F 36.6 °F 37.4 °F 81% 29.76 in 10.0 mi South 11.5 mph - N/A   Clear
5:15 PM 42.8 °F 37.0 °F 39.2 °F 87% 29.75 in 10.0 mi South 10.4 mph - N/A   Clear
5:35 PM 42.8 °F 36.6 °F 39.2 °F 87% 29.74 in 10.0 mi SSW 11.5 mph - N/A   Clear
5:55 PM 42.8 °F 38.0 °F 39.2 °F 87% 29.74 in 10.0 mi South 8.1 mph - N/A   Clear
6:15 PM 42.8 °F 38.0 °F 39.2 °F 87% 29.74 in 10.0 mi South 8.1 mph - N/A   Clear
6:35 PM 41.0 °F 35.8 °F 39.2 °F 93% 29.74 in 10.0 mi SSW 8.1 mph - N/A   Clear
6:55 PM 41.0 °F 35.8 °F 39.2 °F 93% 29.74 in - South 8.1 mph - N/A   Unknown
7:15 PM 39.2 °F 33.6 °F 37.4 °F 93% 29.75 in 10.0 mi South 8.1 mph - N/A   Clear
7:35 PM 41.0 °F 35.8 °F 37.4 °F 87% 29.76 in 10.0 mi SSW 8.1 mph - N/A   Clear
7:55 PM 39.2 °F 33.0 °F 37.4 °F 93% 29.75 in 10.0 mi SSW 9.2 mph - N/A   Clear
8:15 PM 41.0 °F 35.8 °F 37.4 °F 87% 29.75 in 10.0 mi SW 8.1 mph - N/A   Clear
8:35 PM 41.0 °F 35.8 °F 39.2 °F 93% 29.75 in 10.0 mi SSW 8.1 mph - N/A   Clear
8:55 PM 41.0 °F 37.1 °F 39.2 °F 93% 29.75 in 10.0 mi SW 5.8 mph - N/A   Clear
9:15 PM 41.0 °F 36.4 °F 37.4 °F 87% 29.75 in 10.0 mi SW 6.9 mph - N/A   Scattered Clouds
9:35 PM 42.8 °F 38.0 °F 37.4 °F 81% 29.75 in 10.0 mi SSW 8.1 mph - N/A   Overcast
9:55 PM 41.0 °F 37.1 °F 37.4 °F 87% 29.75 in 10.0 mi SSW 5.8 mph - N/A   Overcast
10:15 PM 39.2 °F 34.2 °F 35.6 °F 87% 29.75 in 10.0 mi SSW 6.9 mph - N/A   Overcast
10:35 PM 39.2 °F 35.9 °F 35.6 °F 87% 29.75 in 10.0 mi South 4.6 mph - N/A   Mostly Cloudy
10:55 PM 39.2 °F 34.2 °F 35.6 °F 87% 29.74 in 10.0 mi SSW 6.9 mph - N/A   Scattered Clouds
11:15 PM 39.2 °F 33.0 °F 35.6 °F 87% 29.73 in 10.0 mi SSW 9.2 mph - N/A   Clear
11:35 PM 42.8 °F 37.5 °F 35.6 °F 76% 29.74 in 10.0 mi SW 9.2 mph - N/A   Mostly Cloudy
11:55 PM 41.0 °F 35.8 °F 35.6 °F 81% 29.73 in 10.0 mi SW 8.1 mph - N/A   Overcast
12:15 AM 42.8 °F 37.5 °F 35.6 °F 76% 29.73 in 10.0 mi SW 9.2 mph - N/A   Overcast
12:35 AM 41.0 °F 34.7 °F 35.6 °F 81% 29.71 in 10.0 mi SSW 10.4 mph - N/A   Scattered Clouds
12:55 AM 39.2 °F 32.0 °F 35.6 °F 87% 29.69 in 10.0 mi SSW 11.5 mph - N/A   Clear